User: anonymous   Login
Location: Mactaquac Provincial Park
(45.9573°N, 66.8897°W)
Time: 11:41:39
(UTC-03:00)
Language:

Cosmos 1766 - Orbit

View from above orbital plane
View from above orbital plane
View from above satellite
View from above satellite

Ground track
Ground track

The orbit data is extracted from the following two-line orbital elements,

1 16881U 86055A   14296.10131238  .00006270  00000-0  42478-3 0  9981
2 16881 082.5118 248.7645 0013929 137.9459 222.2840 15.06238768535457
Epoch (UTC): 23 October 2014 02:25:53
Eccentricity: 0.0013929
inclination: 82.5118°
perigee height: 538 km
apogee height: 557 km
right ascension of ascending node: 248.7645°
argument of perigee: 137.9459°
revolutions per day: 15.06238768
mean anomaly at epoch: 222.2840°
orbit number at epoch: 53545

The dashed part of the orbit path shows where the satellite is in the earth's shadow,  

DLR